Location: Anuling
(14.1239°N, 120.8922°E)
Time: 04:34:18
(UTC+00:00)

Cosmos 1850 Rocket - Pass Details

Date: 14 January 2026
Orbit: 749 x 781 km, 74.0° (Epoch: 10 February)

Event Time Altitude Azimuth Distance (km) Brightness Sun altitude
Rises 11:04:30 0° 348° (NNW) 3,252 7.2 -18.6°
Reaches altitude 10° 11:06:53 10° 350° (N) 2,326 6.4 -19.1°
Maximum altitude 11:12:10 81° 76° (ENE) 793 3.9 -20.3°
Drops below altitude 10° 11:17:28 10° 164° (SSE) 2,326 6.5 -21.6°
Sets 11:19:51 0° 165° (SSE) 3,251 7.3 -22.1°
